Theta_e
338 340 344 343 346 347 347 348 349 350 352 351 351 352 351 353 354 356 357 360 362 364 366 367 367 366 366 365 366 367 365 364 363 361 361 360 360 360 359 358 358 359 356 354 360 359 364 364 366 367 368 366 365 366 368 370 371 370 372 375 371 370 371
334 336 337 340 343 345 347 350 350 349 350 351 352 354 353 353 355 355 357 361 362 364 365 366 366 366 366 366 366 367 367 365 365 364 362 361 362 362 361 361 359 359 360 358 359 363 364 364 365 365 366 367 364 366 365 367 369 371 369 371 369 370 369
332 334 336 338 339 341 348 349 351 349 351 350 351 351 353 355 355 357 357 359 361 363 365 365 366 365 366 367 366 366 367 365 364 362 361 358 360 358 361 362 361 358 359 359 360 361 363 363 366 366 365 364 361 365 366 366 367 367 368 370 369 367 368
330 332 334 337 340 343 345 348 350 351 351 353 348 351 352 354 355 357 358 359 360 361 362 363 364 363 364 366 366 366 367 366 365 361 359 357 358 359 359 360 361 360 358 358 358 358 357 360 362 367 367 364 364 364 365 364 364 366 366 368 365 367 368
328 330 332 335 337 341 343 346 348 352 350 350 352 353 354 353 353 354 356 358 357 359 360 361 361 362 364 365 363 364 365 365 364 362 360 358 359 360 358 357 358 359 357 358 361 361 361 361 360 362 366 366 364 364 365 365 364 366 367 367 365 365 364
323 326 329 333 335 338 342 344 346 348 348 348 351 352 351 352 352 352 354 356 355 356 360 360 359 361 362 362 363 361 365 366 367 365 361 360 360 358 358 359 357 359 355 358 359 359 362 361 359 360 361 362 359 359 361 362 361 363 365 367 365 363 361
320 323 325 329 333 335 338 340 342 345 348 350 351 352 353 352 351 351 352 352 353 354 353 353 356 358 360 362 362 363 363 363 364 363 361 359 359 360 359 360 360 357 357 359 359 359 359 360 359 361 361 359 360 358 361 363 361 362 363 365 365 365 365
320 321 323 326 330 332 333 336 339 341 343 345 347 349 351 351 351 350 350 351 351 352 353 352 353 355 360 361 358 361 361 362 362 363 362 359 358 360 358 358 359 360 360 357 360 360 357 359 358 359 360 359 360 361 360 363 365 361 361 362 364 364 361
320 321 322 324 327 329 331 333 336 337 338 338 341 345 355 350 350 350 352 352 351 351 352 352 354 355 357 360 359 360 361 360 361 362 361 358 356 355 354 356 359 360 359 356 355 360 359 356 357 359 361 360 360 363 361 363 362 361 360 361 363 363 360
320 320 321 324 326 327 329 330 332 333 333 332 334 339 342 348 348 352 356 357 353 350 354 354 353 354 356 356 357 358 359 360 360 359 359 357 355 354 355 353 355 359 358 357 354 353 359 358 357 358 362 362 361 363 364 362 361 360 360 361 363 364 364
320 321 321 321 323 324 326 326 327 328 329 329 330 331 336 343 352 349 350 353 349 349 353 353 354 353 354 355 355 355 357 358 358 357 358 357 354 354 354 353 352 356 357 356 353 352 354 359 359 359 362 361 360 361 363 362 363 362 359 359 361 362 361
320 320 320 321 321 321 321 323 325 326 327 327 327 327 330 335 343 350 350 347 348 349 350 352 352 352 352 352 353 356 357 357 357 356 357 357 356 354 353 353 352 353 356 356 354 353 351 355 358 358 360 363 361 360 363 364 363 363 362 357 358 359 360
319 319 320 320 320 321 321 321 322 324 326 325 325 325 325 328 332 340 349 348 347 347 349 351 351 352 351 352 353 356 356 356 356 357 356 357 357 356 355 354 353 352 353 356 354 353 351 351 357 359 359 362 362 358 360 363 362 363 364 361 358 358 360
319 318 318 318 318 318 319 320 320 321 322 323 323 324 324 326 328 332 338 344 346 347 347 349 350 351 351 352 352 355 353 355 357 358 359 358 360 359 357 356 355 355 355 357 356 353 353 351 352 357 358 358 359 360 360 361 362 364 365 364 359 357 358
316 316 316 316 316 317 317 317 319 320 320 321 322 322 323 323 325 328 332 337 341 344 344 348 349 349 349 351 352 354 356 357 357 358 360 360 360 360 359 358 358 358 358 358 358 355 355 354 353 354 355 356 356 357 356 355 357 359 361 363 362 359 355
313 314 315 315 315 315 316 317 317 318 320 321 321 321 321 321 323 324 327 331 334 337 342 345 347 349 349 348 350 353 356 358 360 359 359 361 361 362 361 359 359 358 359 358 358 359 359 358 356 354 354 355 356 356 353 353 352 355 345 350 360 360 354
312 312 313 314 316 315 316 316 316 317 318 320 321 320 320 320 321 323 325 327 330 334 339 341 344 346 348 350 351 353 357 359 360 360 359 362 363 363 363 361 360 359 360 359 359 359 361 358 356 354 354 353 354 355 353 351 350 342 335 336 341 357 360
311 312 312 313 314 315 315 315 315 315 315 317 320 320 321 321 320 322 322 324 326 330 334 339 343 346 350 351 353 355 355 357 359 361 361 361 363 364 364 363 361 360 360 359 358 360 359 357 357 357 355 353 354 353 353 353 343 332 332 333 334 342 356
311 312 312 313 313 314 314 315 315 315 314 316 319 319 320 321 320 321 323 324 325 329 331 335 340 346 350 353 353 354 356 358 357 358 360 360 361 364 364 364 362 360 359 357 359 358 359 360 357 357 356 355 354 353 353 353 340 330 329 331 331 331 344
311 312 312 313 314 314 316 316 316 316 316 317 318 318 320 322 319 320 323 325 327 329 330 333 339 345 346 350 352 354 356 358 357 357 359 359 362 363 363 363 362 360 359 358 359 359 358 358 359 358 359 357 356 356 355 354 342 328 326 327 327 329 335
312 312 312 313 313 313 315 316 317 317 317 317 317 318 319 318 318 320 322 324 325 327 330 331 335 340 341 343 346 349 352 355 356 356 358 360 360 361 360 361 362 361 359 357 357 358 358 357 358 358 359 357 357 356 354 354 336 327 323 323 323 326 331
312 312 312 312 313 314 315 314 315 316 317 319 318 318 317 317 318 319 319 322 325 326 328 329 333 334 335 338 341 341 344 346 353 356 358 358 360 360 360 360 362 361 361 359 356 358 358 358 358 357 357 358 357 356 355 356 333 326 322 321 321 324 344
312 313 313 313 313 313 315 316 315 316 317 317 318 318 318 319 319 318 319 321 323 326 327 327 329 330 332 335 336 338 340 342 346 353 355 357 357 358 357 360 359 361 363 360 358 356 356 357 357 360 358 357 358 357 357 356 341 324 321 319 319 326 348
312 313 313 314 314 314 315 315 315 316 316 316 316 318 319 319 319 318 319 320 321 323 325 326 327 328 329 330 334 338 340 342 343 345 351 354 355 356 361 358 358 359 362 360 358 357 356 357 358 359 359 358 357 356 356 357 347 323 319 317 317 330 351
311 312 313 313 313 312 313 315 316 316 316 316 314 317 318 319 318 317 317 319 320 322 323 325 327 327 327 329 332 337 339 340 342 343 344 349 353 354 356 356 354 356 356 358 360 357 360 360 359 358 359 358 357 353 354 356 349 322 319 317 316 330 352
311 311 312 312 313 313 314 316 316 315 314 313 315 317 318 317 318 318 318 317 318 319 322 325 327 329 329 329 331 334 337 340 341 341 343 345 349 352 353 354 351 350 354 352 353 355 360 357 358 358 358 358 358 357 356 355 358 355 317 316 314 318 351
311 311 310 310 311 313 312 313 313 312 313 315 316 316 317 317 316 317 319 319 317 318 320 324 327 329 330 331 331 331 335 339 340 341 344 346 347 348 351 352 352 349 350 354 353 352 355 358 358 358 359 358 359 358 358 358 357 359 317 314 313 314 325
309 309 310 311 312 312 311 311 312 313 313 315 315 315 316 316 316 318 318 318 318 319 320 323 326 328 330 331 331 332 333 337 341 342 343 346 348 348 349 351 352 353 351 352 354 354 356 357 355 355 356 358 359 360 359 359 349 359 325 314 311 312 313
308 308 308 309 310 310 310 310 310 311 312 313 314 315 315 316 316 317 318 318 320 321 321 321 323 327 329 331 331 333 334 336 339 341 343 345 348 347 346 348 347 348 350 351 353 356 356 355 355 355 354 358 359 360 362 362 363 336 350 316 311 310 310
310 309 309 309 309 309 310 310 311 311 313 313 315 316 317 317 317 317 318 319 322 322 322 322 323 326 328 330 330 331 332 334 335 338 341 343 345 347 347 347 347 347 350 352 353 355 356 355 357 357 355 355 356 358 360 364 363 346 330 339 311 311 309
308 308 308 309 308 310 310 310 310 311 312 313 314 316 317 318 317 318 318 320 322 322 321 321 322 324 325 328 329 331 331 333 335 336 338 341 342 344 344 346 348 347 349 350 351 354 355 356 356 355 355 355 357 359 361 362 364 366 348 326 318 311 310
309 310 310 309 309 310 310 310 311 311 311 313 315 315 317 317 317 317 318 320 321 322 322 322 323 323 326 328 329 330 332 331 332 335 337 340 341 343 344 346 346 347 348 350 351 353 356 356 356 356 357 356 357 359 361 362 365 366 369 341 330 320 312
309 310 309 309 310 311 310 311 310 311 312 313 315 316 316 317 318 319 320 320 321 321 321 321 322 323 325 326 328 330 331 331 331 333 336 337 338 340 342 343 346 347 347 348 350 352 355 355 356 356 356 356 357 358 363 363 362 364 366 369 359 349 339
309 309 310 311 311 312 312 311 311 311 312 313 315 316 317 317 317 318 319 320 320 320 320 320 320 321 323 325 326 327 328 328 329 331 332 334 337 338 339 341 344 344 346 347 348 349 351 353 352 356 354 355 354 356 359 359 360 361 363 366 367 364 357
309 309 309 309 310 311 310 310 310 311 311 311 313 315 315 317 318 318 319 319 320 320 320 320 321 323 323 323 324 325 328 328 328 329 331 334 337 337 340 341 342 343 344 347 349 350 350 352 355 353 353 355 357 353 352 353 357 361 338 353 336 360 369
307 308 309 309 310 310 310 311 311 311 311 312 313 314 315 316 317 318 318 319 319 319 320 321 321 321 322 323 324 324 326 328 327 328 330 331 332 335 336 335 322 331 341 341 337 327 319 318 338 346 347 346 350 355 353 355 361 326 312 317 316 319 323
306 307 307 309 308 308 309 309 310 310 310 311 313 313 314 315 316 318 318 319 320 319 320 321 320 319 319 321 322 324 326 326 327 328 330 332 333 334 334 336 340 313 310 318 325 321 316 313 312 312 314 332 343 343 329 325 320 315 316 313 312 309 310
307 307 307 308 308 308 309 309 309 309 310 311 312 312 313 313 315 317 317 319 319 319 320 320 319 318 318 319 322 324 326 326 327 328 329 331 333 334 333 334 334 340 321 310 313 314 310 309 309 309 310 311 318 329 344 331 319 313 311 312 310 309 307
Wind_Speed
7 3 11 13 10 11 14 16 17 14 12 14 16 17 17 15 14 13 13 14 15 15 15 14 14 13 14 13 13 11 11 10 10 10 10 9 8 8 8 8 9 8 7 7 7 6 5 5 5 5 5 6 6 6 6 5 5 5 5 4 4 3 4
8 7 7 1 11 14 13 15 15 15 17 16 15 16 15 16 15 15 14 14 16 15 15 15 15 13 14 13 12 12 12 12 11 9 9 8 8 8 8 8 8 8 7 6 5 6 6 6 6 6 6 6 7 6 7 7 6 6 5 5 5 4 5
10 10 8 7 6 2 8 14 13 14 14 14 14 14 14 14 15 16 15 15 16 16 15 15 15 14 13 13 12 13 12 12 12 12 12 10 11 11 9 8 8 8 8 8 7 6 7 7 6 6 6 6 7 7 7 7 7 7 6 5 5 5 5
12 12 11 10 8 7 6 6 12 13 13 14 13 14 14 14 14 13 14 15 16 16 16 15 15 15 13 13 13 12 13 13 13 12 12 11 10 10 9 9 8 8 8 9 8 8 7 7 7 6 7 6 6 6 7 7 7 7 7 6 5 5 5
13 12 11 10 9 7 6 5 7 11 10 12 14 14 15 16 17 16 15 14 15 16 17 16 14 14 12 13 11 11 12 14 13 12 11 10 10 9 10 11 10 10 9 8 8 7 8 7 7 7 7 7 7 7 7 8 7 7 7 7 6 6 6
12 12 11 10 9 8 9 4 10 8 11 12 12 13 13 15 15 17 15 14 12 9 8 8 10 11 13 13 12 11 11 12 11 11 11 10 11 10 11 11 10 10 11 10 8 9 9 9 9 8 8 8 8 8 8 8 8 8 8 7 7 6 6
11 12 12 11 11 11 11 14 13 8 2 5 10 10 11 13 14 13 14 14 15 14 15 14 12 9 10 10 11 12 12 12 12 13 12 12 12 11 11 10 10 10 10 9 9 9 9 9 9 9 8 8 8 8 8 7 8 7 7 7 7 7 6
12 11 12 12 13 13 13 15 14 14 13 15 14 4 11 11 11 10 13 11 12 14 14 14 14 14 12 10 11 12 13 13 12 12 12 13 12 12 11 11 10 10 10 10 10 10 10 10 9 10 10 9 9 8 8 8 8 8 7 8 8 8 7
11 12 13 13 14 14 15 15 15 15 17 17 13 14 3 8 8 12 13 14 15 14 14 14 14 14 12 11 11 12 12 12 12 12 14 14 13 13 13 12 11 10 11 11 10 10 10 10 10 9 9 10 9 9 9 8 9 8 8 8 8 9 8
12 12 13 14 14 15 15 15 16 17 18 16 14 14 15 2 1 3 2 8 10 13 12 11 11 12 13 13 13 14 14 13 12 14 14 14 13 14 14 12 12 11 12 12 11 10 10 10 10 10 10 10 10 9 9 9 9 9 9 9 9 9 9
10 11 14 16 17 17 17 19 19 17 15 15 14 14 13 12 3 3 7 1 10 11 11 10 9 11 11 12 14 14 13 14 13 14 14 14 13 15 14 13 12 11 12 12 12 11 10 10 10 10 10 10 11 10 10 10 10 10 10 9 9 9 9
11 12 13 15 16 17 18 16 16 17 16 14 15 13 13 14 10 4 4 3 3 7 7 9 10 11 11 11 12 12 13 14 13 14 14 14 14 14 14 13 13 12 12 12 12 12 11 11 10 10 11 11 11 11 11 10 10 10 10 11 10 10 9
11 12 13 15 15 14 14 16 18 16 16 15 15 15 13 12 13 11 3 6 3 5 5 7 9 9 10 11 11 10 12 13 13 12 13 13 13 12 13 13 13 14 13 12 12 13 12 12 12 11 11 11 11 12 11 11 11 10 10 11 10 10 10
12 14 14 14 15 17 16 16 15 16 16 16 15 14 13 12 13 11 10 5 1 3 7 7 8 9 10 11 10 10 11 11 11 12 11 11 11 12 12 12 12 13 12 11 12 13 13 13 13 12 11 12 12 11 11 11 11 11 11 11 11 11 11
13 14 14 15 15 15 16 15 14 14 15 14 15 15 14 13 13 12 11 10 7 2 3 5 7 9 10 10 10 10 10 9 10 10 11 12 11 12 12 12 11 11 11 11 11 11 12 13 13 13 13 12 12 12 12 12 12 11 11 11 12 11 12
13 13 14 14 14 14 13 13 13 13 13 13 15 15 13 12 12 12 12 11 10 10 7 4 5 7 10 11 12 11 11 10 9 10 11 11 12 12 12 12 12 11 12 12 12 11 11 11 12 13 13 13 13 13 12 12 11 11 13 12 10 11 11
12 13 13 13 13 14 13 13 13 13 13 13 13 13 12 11 11 11 11 12 12 11 10 8 5 5 8 10 11 10 10 11 11 11 11 11 11 11 12 12 11 11 11 12 12 12 11 11 13 13 13 13 13 14 13 12 12 14 15 15 14 11 10
12 12 12 13 13 13 13 13 14 14 14 13 13 12 12 11 12 12 12 12 12 11 11 10 8 5 6 7 7 10 12 11 11 11 12 12 12 12 12 12 12 12 12 12 13 12 12 13 13 13 13 12 14 14 13 13 13 15 17 17 18 15 12
11 11 11 12 12 12 12 12 12 12 13 11 11 11 12 11 11 11 11 11 11 10 11 11 9 7 5 5 7 10 10 10 11 12 12 13 13 12 11 12 13 13 14 14 13 13 13 13 14 14 14 14 14 14 14 14 14 15 17 18 18 18 16
10 10 10 10 11 11 11 10 10 10 11 11 11 12 11 10 10 10 10 9 9 9 10 10 9 8 7 6 6 7 8 10 11 11 12 13 12 12 12 13 13 14 14 13 12 13 13 14 15 14 13 14 14 14 14 15 14 16 17 18 18 18 15
8 9 10 9 10 11 11 10 11 11 11 11 11 10 10 10 11 10 10 10 9 9 9 9 8 8 7 7 7 7 7 7 9 12 13 11 12 13 14 13 13 14 13 13 13 13 13 14 14 14 14 15 14 14 14 14 15 14 17 18 19 18 14
8 9 9 9 10 9 9 10 11 11 11 10 9 9 9 10 11 11 11 11 9 9 9 8 7 7 8 8 7 8 9 9 8 8 10 12 12 13 14 14 14 14 13 12 12 12 12 12 13 14 15 15 15 14 15 15 16 15 16 17 17 17 10
7 7 8 8 9 9 8 8 10 11 10 9 9 9 9 9 9 10 10 10 9 9 8 8 7 7 8 8 8 8 8 9 10 9 9 8 10 13 14 13 15 14 12 12 12 13 13 12 12 12 13 15 14 15 15 15 15 16 17 17 17 13 10
6 7 8 9 9 9 9 9 10 11 10 10 10 9 9 10 10 10 9 9 10 10 9 8 8 8 9 9 9 8 8 8 9 10 10 10 11 11 11 13 12 12 11 12 12 14 13 12 12 12 12 14 15 15 15 16 14 16 17 18 18 15 12
6 7 8 10 11 11 10 10 11 11 10 10 10 9 10 10 10 10 10 10 10 10 10 9 8 9 9 11 10 10 8 7 7 8 10 10 10 12 9 7 7 10 11 11 10 12 12 11 12 12 12 14 15 15 17 16 14 16 18 19 19 16 12
7 6 7 8 10 11 12 11 10 10 10 11 10 11 11 9 9 10 10 10 10 9 9 9 9 10 9 9 10 10 10 8 7 7 8 9 9 10 8 4 5 4 4 9 12 12 10 12 13 14 13 13 14 13 16 16 15 12 19 19 20 21 13
9 9 9 9 8 10 11 11 11 11 12 10 10 10 10 8 9 9 10 11 10 10 10 10 10 10 10 10 10 11 10 9 8 9 9 9 7 7 6 3 7 8 10 10 9 10 10 13 14 13 13 13 13 14 15 14 15 13 19 19 20 22 19
9 10 10 9 10 9 9 10 12 13 13 11 11 10 9 9 9 9 9 10 11 11 11 10 10 10 10 10 11 11 11 10 10 10 9 8 8 7 6 7 7 7 11 9 7 9 10 9 10 13 13 13 14 14 15 15 15 14 16 21 21 22 24
10 11 11 11 11 10 10 10 12 13 14 12 11 10 10 10 10 10 10 10 11 11 11 11 11 11 11 11 11 10 10 10 11 10 8 8 8 9 9 8 8 8 7 9 11 12 12 11 11 12 13 13 13 14 13 14 11 17 14 19 22 23 23
10 11 12 12 12 12 12 11 11 13 14 13 11 11 10 10 11 10 11 12 10 10 10 11 11 11 11 10 10 10 10 10 10 9 9 10 9 9 9 8 7 7 7 8 10 11 13 13 11 10 12 13 14 14 14 13 13 12 18 15 22 21 23
11 12 13 13 13 13 12 12 13 13 14 13 13 12 11 10 11 13 13 11 9 10 10 10 11 11 11 11 11 11 11 10 10 10 10 10 10 10 9 9 8 8 7 8 9 11 13 14 14 13 13 13 13 14 13 14 13 12 14 20 19 22 23
11 11 12 13 14 14 14 14 14 14 15 15 14 12 11 11 11 14 13 11 10 10 10 10 10 11 11 11 11 11 11 11 12 11 11 10 10 10 9 9 9 9 8 8 9 10 11 13 13 14 15 14 14 12 13 9 10 13 10 12 17 17 22
10 11 12 13 13 14 13 13 13 13 14 15 14 13 12 12 12 12 12 12 11 10 10 11 11 11 11 11 11 11 10 11 10 9 9 10 10 9 9 9 8 9 9 9 10 11 12 13 13 14 14 15 14 12 9 6 8 10 13 9 9 11 12
10 11 12 13 13 13 13 13 14 15 14 14 13 13 12 12 13 13 13 12 12 12 12 12 11 11 11 12 11 10 10 11 12 11 10 10 9 9 9 8 8 9 9 9 9 11 12 11 12 8 7 9 10 9 10 10 9 9 10 10 12 10 11
13 14 14 14 13 13 13 13 14 15 16 15 14 14 14 14 13 13 14 13 12 12 12 11 12 12 13 12 11 11 10 10 10 10 10 9 9 9 10 10 10 10 10 10 9 9 9 11 8 6 10 10 7 9 11 12 11 9 5 10 16 11 8
13 14 14 13 13 13 14 15 15 16 16 15 14 14 14 15 14 13 13 13 12 12 12 12 11 12 12 11 11 11 10 9 9 10 9 10 9 10 11 13 14 13 12 12 10 13 16 12 12 11 9 10 11 8 10 12 10 11 12 8 12 19 16
14 13 13 14 15 15 15 15 16 17 18 16 15 15 15 15 14 14 13 13 12 12 12 12 11 11 11 11 11 10 9 9 9 9 10 9 9 9 10 12 12 13 16 17 16 17 18 19 21 19 15 10 11 13 16 18 20 21 22 18 13 15 15
15 15 16 15 14 15 16 16 16 17 18 17 17 17 16 16 15 14 14 13 13 13 13 13 12 12 11 11 11 10 10 10 10 10 10 10 9 9 10 11 13 13 13 19 21 20 21 20 21 20 19 19 16 12 13 16 18 17 17 17 14 13 11
Wind_Direction
10 6 181 184 197 215 214 203 196 191 206 207 199 198 196 194 193 189 190 186 188 186 184 185 187 187 190 193 195 195 198 200 200 204 207 211 213 210 206 209 207 213 218 207 204 209 200 209 210 210 207 199 210 205 212 206 207 203 199 194 209 222 214
13 13 19 124 211 204 209 212 196 195 196 202 204 200 199 194 191 191 189 186 189 187 186 187 188 189 192 194 194 194 197 199 200 202 206 208 209 209 211 209 216 207 218 227 210 203 206 201 208 209 211 202 213 212 210 211 213 214 207 198 212 212 213
17 10 4 355 346 286 217 222 204 201 204 202 200 201 204 199 193 193 189 188 189 189 188 189 189 191 191 193 194 196 197 198 199 201 204 206 204 209 206 210 212 213 212 216 224 214 206 215 206 213 213 212 215 205 218 215 213 214 214 210 218 217 220
22 15 7 358 349 325 302 226 207 209 210 202 205 201 200 202 201 197 197 193 189 189 191 190 192 193 192 193 196 196 198 200 202 204 208 211 207 209 209 206 210 217 212 218 217 221 225 210 207 209 210 214 219 216 215 221 215 210 211 212 224 226 229
20 19 19 15 11 357 307 269 226 191 212 221 207 198 200 199 194 195 199 200 200 196 195 194 194 192 193 193 197 199 200 200 201 205 208 210 210 209 211 210 204 213 216 214 217 219 226 220 213 211 204 210 211 213 217 217 221 212 211 211 224 227 226
17 15 19 24 21 26 15 258 229 213 204 208 211 205 202 203 197 200 196 194 199 195 203 191 217 209 200 198 201 200 200 201 202 203 206 206 206 209 209 210 211 210 212 215 216 215 212 218 223 218 213 204 211 214 211 214 217 215 209 213 222 226 231
17 14 16 19 24 27 29 29 33 30 19 240 217 207 210 203 202 204 200 195 191 183 191 198 203 219 220 212 206 202 200 199 199 202 203 206 205 209 210 210 214 213 215 209 216 218 215 215 219 221 218 222 211 212 208 213 220 218 217 216 217 225 235
25 21 19 19 24 29 29 27 31 33 35 34 19 252 205 208 194 207 209 198 206 194 192 190 194 203 205 200 220 212 204 204 199 201 203 206 205 207 209 212 211 214 211 215 213 217 220 217 217 215 219 220 216 215 214 206 214 221 219 219 219 223 221
30 29 26 26 28 32 31 30 28 32 33 34 22 24 326 219 216 199 204 191 196 191 195 191 195 192 201 193 202 217 217 211 203 200 204 209 210 210 212 208 211 208 211 215 214 211 221 220 221 220 216 221 219 214 217 212 214 221 225 222 222 226 233
31 29 28 31 33 34 33 33 30 29 28 23 24 15 14 292 207 345 146 152 176 194 195 202 200 194 190 200 207 212 212 211 211 207 207 212 215 215 214 213 206 204 211 213 217 214 211 221 223 219 216 219 219 216 218 216 220 223 221 221 223 227 227
38 35 34 34 34 32 33 34 32 29 25 24 20 20 15 16 91 71 13 86 173 195 200 198 207 212 202 203 209 211 213 214 211 213 213 216 218 216 216 216 211 202 209 211 215 217 212 209 216 220 217 219 219 219 219 220 220 222 226 223 223 225 229
46 40 37 36 35 34 33 31 32 29 25 26 24 20 16 15 13 121 106 312 234 204 204 214 211 210 209 215 218 215 214 213 215 215 214 216 220 221 218 217 216 209 204 211 212 213 215 210 211 213 216 220 223 222 221 222 221 221 225 227 223 222 227
51 47 42 39 37 34 34 32 28 25 24 25 25 22 19 15 15 15 47 179 232 266 239 231 238 234 228 224 224 218 220 217 216 217 218 216 220 222 221 221 218 216 210 206 212 211 212 210 210 211 215 218 221 223 222 221 222 222 221 226 230 226 225
53 50 45 40 37 32 31 31 24 22 20 19 20 18 19 16 13 11 11 19 65 249 261 245 244 243 233 234 231 228 224 224 219 217 221 223 219 223 225 222 223 221 218 209 211 213 212 214 209 210 214 217 219 222 222 219 220 220 221 222 226 225 225
44 43 41 39 35 35 30 28 24 19 17 14 14 16 16 14 9 6 3 7 6 339 360 323 255 242 248 242 240 237 236 232 226 219 216 219 221 219 222 225 221 221 221 214 217 216 217 216 216 213 216 217 218 220 220 221 221 221 218 218 220 226 228
40 38 38 38 33 32 29 26 25 19 16 15 13 10 11 9 6 3 0 359 358 354 357 343 309 276 246 245 242 240 240 233 227 223 222 216 216 216 217 219 220 219 218 218 216 219 220 221 221 222 218 218 217 218 220 223 226 216 212 217 223 220 228
37 34 35 35 34 31 26 24 20 17 14 14 9 7 6 4 1 358 359 358 358 349 347 342 330 274 261 250 244 243 234 231 231 226 223 218 214 214 215 216 219 219 218 219 219 220 217 220 222 225 225 223 221 219 221 224 224 206 195 202 216 227 228
33 29 29 28 28 25 23 21 20 13 9 5 3 4 4 2 358 357 356 350 351 347 342 342 333 319 290 276 276 250 240 234 231 229 230 223 215 213 212 214 216 219 219 219 220 217 219 219 221 224 228 229 228 227 226 228 222 197 194 199 205 211 225
28 26 24 25 22 21 18 17 16 11 5 0 358 359 359 359 356 352 348 346 340 339 344 343 339 332 339 347 303 285 278 250 234 236 234 234 231 219 213 214 215 218 221 222 222 221 219 223 222 221 224 230 232 234 232 233 218 196 196 199 202 206 214
21 20 19 20 15 17 14 9 9 6 2 356 355 356 352 356 350 342 337 339 339 342 343 342 339 346 347 341 338 305 277 274 258 243 238 239 235 230 221 218 218 220 222 225 223 222 223 223 222 223 223 225 228 232 236 235 226 198 197 200 202 204 204
16 11 11 9 7 9 6 2 1 356 359 354 353 349 348 350 346 338 338 338 341 346 344 339 337 344 345 347 337 338 331 299 267 257 250 243 236 234 234 225 223 223 225 226 224 222 223 225 224 223 223 224 225 229 233 234 229 204 198 201 202 203 199
9 4 2 359 357 359 357 355 355 353 351 339 345 346 349 347 339 337 336 333 338 345 342 336 335 343 344 337 340 342 333 325 310 285 263 249 241 235 236 236 229 225 224 228 233 229 224 222 228 227 224 225 227 229 232 236 220 207 200 201 203 195 199
4 354 347 348 351 347 349 343 347 347 336 338 338 340 346 340 336 334 330 329 334 333 338 334 335 341 337 335 335 335 331 328 320 311 289 272 254 246 241 238 239 237 231 230 232 234 230 229 226 225 228 227 225 228 234 237 222 203 202 199 197 185 211
352 346 341 340 336 335 338 344 339 336 329 329 331 342 340 332 334 330 328 329 330 330 327 331 338 343 336 331 330 328 326 321 319 314 308 287 269 260 252 248 253 247 232 237 239 235 235 235 232 229 229 230 228 225 230 236 223 197 200 199 189 190 207
344 341 336 335 333 330 336 338 330 319 318 321 328 338 330 326 328 327 330 332 327 322 323 326 335 337 334 326 325 318 314 312 301 306 304 304 296 275 276 299 311 316 318 274 236 245 249 244 241 238 233 231 231 224 229 238 230 194 198 196 189 193 211
331 332 328 328 324 332 328 322 313 313 320 323 328 324 320 323 320 322 324 326 323 319 318 324 328 326 321 321 318 314 312 312 306 290 291 293 299 306 322 360 19 335 324 320 313 298 273 250 246 246 242 237 233 231 227 235 241 203 195 192 191 193 204
320 326 325 323 330 333 314 314 314 315 315 317 317 313 314 314 314 313 318 317 317 318 317 320 319 315 314 314 314 314 311 308 308 308 297 287 289 304 302 246 231 230 227 226 233 236 257 270 265 251 246 243 243 241 236 235 235 216 187 193 191 195 200
319 319 317 320 323 311 310 310 308 307 307 311 309 308 307 307 303 305 305 307 307 314 319 316 312 310 310 310 308 311 312 311 309 307 303 297 291 279 272 274 262 250 250 259 255 249 249 250 260 262 261 258 245 242 244 239 227 237 186 192 193 195 198
315 314 316 316 310 314 313 310 309 307 306 306 306 309 305 301 298 295 295 290 297 307 312 313 308 305 304 302 302 302 304 304 304 301 297 291 282 278 272 266 263 259 254 247 251 252 249 244 246 248 248 249 254 252 245 241 231 218 214 191 195 194 198
305 307 307 308 311 312 315 306 300 299 300 302 302 300 297 295 291 286 284 285 292 298 304 303 302 300 298 296 295 298 298 300 300 298 293 289 283 274 271 266 256 261 261 255 247 247 247 247 244 248 251 252 251 249 248 243 240 211 213 195 193 195 199
303 304 304 307 308 309 304 301 300 296 293 293 295 296 295 291 285 283 279 282 289 292 295 297 297 295 293 293 294 296 297 295 294 294 292 288 284 280 273 262 253 245 238 249 258 255 249 244 240 237 240 243 244 251 248 244 240 242 205 200 190 197 199
289 293 298 300 301 304 304 301 297 293 291 290 289 289 287 284 282 281 281 284 285 287 290 289 287 286 286 288 288 289 291 291 292 291 291 289 286 279 272 271 262 252 246 243 242 248 252 248 240 237 239 242 245 248 254 258 274 257 235 193 200 200 202
288 288 292 294 296 298 296 296 293 290 289 288 290 291 289 287 283 281 282 280 277 279 282 285 283 279 278 278 280 282 282 283 283 287 290 290 282 269 266 261 255 250 245 242 253 255 253 249 243 241 240 242 246 249 248 227 243 258 264 246 208 202 203
287 291 291 292 293 291 287 285 284 285 285 284 285 287 286 284 282 281 280 278 278 281 282 279 275 276 276 275 277 276 276 278 283 283 280 282 283 283 280 274 265 258 248 243 241 253 261 261 258 267 291 280 275 283 275 263 244 245 251 250 244 219 202
294 294 294 292 291 289 285 285 284 284 284 283 284 284 283 281 279 279 277 274 272 270 270 271 272 271 273 274 272 272 274 275 277 277 280 283 286 284 283 282 280 276 272 265 258 261 274 285 290 241 226 243 238 247 255 259 258 246 22 331 309 287 242
296 294 293 292 290 287 284 282 281 281 281 282 281 279 278 278 276 274 273 273 271 268 266 267 269 271 272 271 270 268 268 268 273 282 286 286 285 286 281 272 254 256 271 277 280 296 295 286 276 280 297 294 279 271 265 263 265 342 339 276 273 270 264
295 294 293 293 289 284 281 282 282 283 282 282 282 279 277 274 272 270 268 266 266 264 263 264 266 269 270 268 265 266 271 275 278 280 281 280 282 282 284 289 277 238 231 242 252 255 258 264 270 274 263 243 268 270 260 265 274 278 281 278 260 253 256
297 296 294 291 288 287 284 281 280 279 281 282 281 280 279 278 276 274 271 269 266 262 261 261 262 265 267 267 268 266 262 261 262 268 273 277 276 276 280 283 283 284 246 228 236 237 238 242 249 256 262 264 256 259 276 268 264 264 264 268 267 256 260